Regional Weather Roundup
Issued by NWS

Current Version | Previous Version | Text Only | Print | Product List | Glossary On
Versions: 1 2 3 4 5 6 7 8 9 10 11 12 13 14 15 16 17 18 19 20 21 22 23 24 25 26 27 28 29 30 31 32 33 34 35 36 37 38 39 40 41 42 43 44 45 46 47 48 49 50
000
ASUS45 KBOI 240610
RWRID

IDAHO REGIONAL WEATHER ROUNDUP
NATIONAL WEATHER SERVICE BOISE ID
1200 AM MDT SUN MAY 24 2015

NOTE: "FAIR" INDICATES FEW OR NO CLOUDS BELOW 12000 FEET
WITH NO SIGNIFICANT WEATHER AND/OR OBSTRUCTIONS TO VISIBILITY

IDZ012-014-240700-
SOUTHWEST IDAHO


CITY           SKY/WX    TMP DP  RH WIND       PRES   REMARKS
BOISE          PTCLDY    60  51  72 S12       29.90R
CALDWELL       PTCLDY    63  45  51 NW8       29.90R
MOUNTAIN HOME  MOCLDY    58  50  75 SE13      29.93R
$$

IDZ016-017-240700-
SOUTHCENTRAL IDAHO


CITY           SKY/WX    TMP DP  RH WIND       PRES   REMARKS
BURLEY         CLOUDY    50  48  93 E3        29.97S
JEROME         CLOUDY    52  48  86 E8        29.97S
TWIN FALLS     CLOUDY    52  49  89 E6        29.95S
$$

IDZ019>023-240700-
SOUTHEAST IDAHO


CITY           SKY/WX    TMP DP  RH WIND       PRES   REMARKS
IDAHO FALLS    PTCLDY    46  45  96 CALM      30.00S FOG
POCATELLO      CLOUDY    51  50  96 E3        29.99F
REXBURG        MOCLDY    47  45  93 CALM      30.00S
$$

IDZ006-010-011-018-031-032-240700-
CENTRAL IDAHO MOUNTAINS


CITY           SKY/WX    TMP DP  RH WIND       PRES   REMARKS
MCCALL         CLEAR     54  38  54 N7        30.00S
HAILEY         MOCLDY    46  45  93 NW9       30.02F
STANLEY          N/A     40  36  86 CALM      30.06S
SALMON         CLOUDY    52  48  87 SE3       30.03R
CHALLIS        MOCLDY    52  40  63 N7        30.03S
$$

IDZ002-004-006-007-026-240700-
NORTHERN IDAHO


CITY           SKY/WX    TMP DP  RH WIND       PRES   REMARKS
LEWISTON       MOCLDY    62  55  77 E7        29.98R
LOWELL           N/A     56  54  93 CALM      30.02S
COEUR D`ALENE  CLEAR     66  41  39 S9        29.99R
MULLAN PASS    CLEAR     49  34  56 E6        30.14F
$$


USA.gov is the U.S. government's official web portal to all federal, state and local government web resources and services.